Terminal Aerodrome Forecast
Issued by NWS Pueblo, CO

Home | Current Version | Previous Version | Text Only | Print | Product List | Glossary On
Versions: 1 2 3 4 5 6 7 8 9 10 11 12 13 14 15 16 17 18 19 20 21 22 23 24 25 26 27 28 29 30 31 32 33 34 35 36 37 38 39 40 41 42 43 44 45 46
000
FTUS45 KPUB 251203 AAB
TAFPUB
TAF AMD
KPUB 251203Z 2512/2612 VRB05KT P6SM SKC
     FM251400 28008KT P6SM SCT250
     FM252000 24010KT P6SM SCT100 BKN250
     FM252200 16012KT P6SM SCT080 BKN150
     FM260200 36014KT P6SM SCT060 BKN120
     FM260600 35008KT P6SM SCT040 BKN060
     FM261000 VRB04KT 5SM BR SCT005 BKN050=

USA.gov is the U.S. government's official web portal to all federal, state and local government web resources and services.